| time (UTC) | temp C | wind direction | speed KPH | gust KPH | rain 1hr cm | rain 24hr cm | rain mn cm | humidity % | barometer mb |
| 20260507230125 | 18 | 219 | 9.7 | 22.5 | 0.00 | 0.00 | 0.00 | 73 | 1013.1 |
| 20260507225618 | 19 | 196 | 9.7 | 20.9 | 0.00 | 0.00 | 0.00 | 71 | 1013.1 |
| 20260507225110 | 18 | 272 | 9.7 | 20.9 | 0.00 | 0.00 | 0.00 | 75 | 1013.1 |
| 20260507224603 | 18 | 232 | 14.5 | 20.9 | 0.00 | 0.00 | 0.00 | 76 | 1013.1 |
| 20260507224055 | 18 | 235 | 14.5 | 24.1 | 0.00 | 0.00 | 0.00 | 77 | 1013.4 |
| 20260507223548 | 18 | 213 | 20.9 | 24.1 | 0.00 | 0.00 | 0.00 | 75 | 1013.4 |
| 20260507222533 | 18 | 238 | 14.5 | 22.5 | 0.00 | 0.00 | 0.00 | 75 | 1013.4 |
| 20260507222026 | 19 | 199 | 14.5 | 22.5 | 0.00 | 0.00 | 0.00 | 74 | 1013.4 |
| 20260507221518 | 18 | 248 | 9.7 | 22.5 | 0.00 | 0.00 | 0.00 | 73 | 1013.4 |
| 20260507221011 | 19 | 198 | 8.0 | 22.5 | 0.00 | 0.00 | 0.00 | 74 | 1013.4 |
| 20260507220504 | 18 | 197 | 14.5 | 20.9 | 0.00 | 0.00 | 0.00 | 73 | 1013.4 |
| 20260507215957 | 19 | 15 | 14.5 | 22.5 | 0.00 | 0.00 | 0.00 | 72 | 1013.4 |
| 20260507215449 | 18 | 328 | 12.9 | 25.7 | 0.00 | 0.00 | 0.00 | 73 | 1013.4 |
| 20260507214941 | 18 | 246 | 9.7 | 25.7 | 0.00 | 0.00 | 0.00 | 73 | 1013.8 |
| 20260507214434 | 19 | 263 | 6.4 | 20.9 | 0.00 | 0.00 | 0.00 | 72 | 1013.8 |
| 20260507212912 | 19 | 202 | 8.0 | 22.5 | 0.00 | 0.00 | 0.00 | 72 | 1013.8 |
| 20260507211858 | 18 | 274 | 12.9 | 24.1 | 0.00 | 0.00 | 0.00 | 71 | 1014.1 |
| 20260507211351 | 18 | 275 | 11.3 | 24.1 | 0.00 | 0.00 | 0.00 | 74 | 1014.1 |
| 20260507210844 | 19 | 218 | 12.9 | 20.9 | 0.00 | 0.00 | 0.00 | 72 | 1014.1 |
| 20260507210336 | 19 | 258 | 9.7 | 24.1 | 0.00 | 0.00 | 0.00 | 72 | 1014.1 |
| 20260507205829 | 19 | 246 | 14.5 | 24.1 | 0.00 | 0.00 | 0.00 | 73 | 1014.5 |
| 20260507205323 | 19 | 198 | 9.7 | 24.1 | 0.00 | 0.00 | 0.00 | 72 | 1014.5 |
| 20260507204814 | 18 | 297 | 12.9 | 24.1 | 0.00 | 0.00 | 0.00 | 72 | 1014.5 |
| 20260507204307 | 19 | 210 | 9.7 | 20.9 | 0.00 | 0.00 | 0.00 | 70 | 1014.5 |
| 20260507203759 | 18 | 261 | 12.9 | 24.1 | 0.00 | 0.00 | 0.00 | 72 | 1014.5 |
| 20260507203252 | 18 | 147 | 19.3 | 24.1 | 0.00 | 0.00 | 0.00 | 70 | 1014.5 |
| 20260507202745 | 19 | 217 | 19.3 | 20.9 | 0.00 | 0.00 | 0.00 | 71 | 1014.5 |
| 20260507202238 | 19 | 219 | 12.9 | 17.7 | 0.00 | 0.00 | 0.00 | 70 | 1014.5 |
| 20260507201730 | 19 | 213 | 8.0 | 22.5 | 0.00 | 0.00 | 0.00 | 72 | 1014.5 |
| 20260507201223 | 18 | 220 | 14.5 | 22.5 | 0.00 | 0.00 | 0.00 | 73 | 1014.5 |
| 20260507200715 | 18 | 241 | 8.0 | 20.9 | 0.00 | 0.00 | 0.00 | 73 | 1014.5 |
| 20260507200208 | 19 | 189 | 8.0 | 17.7 | 0.00 | 0.00 | 0.00 | 73 | 1014.5 |
| 20260507195701 | 19 | 220 | 14.5 | 17.7 | 0.00 | 0.00 | 0.00 | 70 | 1014.8 |
| 20260507195154 | 19 | 200 | 12.9 | 16.1 | 0.00 | 0.00 | 0.00 | 72 | 1014.8 |
| 20260507194646 | 19 | 216 | 9.7 | 17.7 | 0.00 | 0.00 | 0.00 | 72 | 1014.8 |
| 20260507194139 | 18 | 215 | 12.9 | 22.5 | 0.00 | 0.00 | 0.00 | 74 | 1014.8 |
| 20260507192617 | 18 | 266 | 11.3 | 17.7 | 0.00 | 0.00 | 0.00 | 72 | 1014.8 |
| 20260507191055 | 19 | 235 | 14.5 | 17.7 | 0.00 | 0.00 | 0.00 | 72 | 1015.1 |
| 20260507190548 | 19 | 257 | 9.7 | 17.7 | 0.00 | 0.00 | 0.00 | 70 | 1015.1 |
| 20260507190040 | 18 | 203 | 12.9 | 17.7 | 0.00 | 0.00 | 0.00 | 72 | 1015.1 |
| 20260507185533 | 19 | 237 | 11.3 | 17.7 | 0.00 | 0.00 | 0.00 | 72 | 1015.1 |
| 20260507185026 | 19 | 186 | 9.7 | 16.1 | 0.00 | 0.00 | 0.00 | 69 | 1015.1 |
| 20260507184519 | 19 | 217 | 11.3 | 16.1 | 0.00 | 0.00 | 0.00 | 70 | 1015.1 |
| 20260507184011 | 18 | 229 | 9.7 | 16.1 | 0.00 | 0.00 | 0.00 | 73 | 1015.1 |
| 20260507183503 | 19 | 239 | 6.4 | 14.5 | 0.00 | 0.00 | 0.00 | 71 | 1015.1 |
| 20260507182449 | 18 | 252 | 6.4 | 12.9 | 0.00 | 0.00 | 0.00 | 72 | 1015.1 |
| 20260507181942 | 18 | 222 | 4.8 | 14.5 | 0.00 | 0.00 | 0.00 | 71 | 1015.1 |
| 20260507180928 | 18 | 233 | 12.9 | 17.7 | 0.00 | 0.00 | 0.00 | 73 | 1015.1 |
| 20260507175913 | 18 | 266 | 6.4 | 14.5 | 0.00 | 0.00 | 0.00 | 73 | 1015.1 |
| 20260507175405 | 18 | 186 | 9.7 | 12.9 | 0.00 | 0.00 | 0.00 | 73 | 1015.1 |
| 20260507174351 | 18 | 215 | 4.8 | 14.5 | 0.00 | 0.00 | 0.00 | 76 | 1015.1 |
| 20260507172830 | 18 | 334 | 3.2 | 16.1 | 0.00 | 0.00 | 0.00 | 75 | 1015.5 |
| 20260507172322 | 18 | 214 | 9.7 | 16.1 | 0.00 | 0.00 | 0.00 | 73 | 1015.5 |
| 20260507171815 | 18 | 332 | 1.6 | 14.5 | 0.00 | 0.00 | 0.00 | 75 | 1015.1 |
| 20260507171308 | 18 | 261 | 6.4 | 12.9 | 0.00 | 0.00 | 0.00 | 72 | 1015.1 |
| 20260507170800 | 18 | 305 | 4.8 | 12.9 | 0.00 | 0.00 | 0.00 | 72 | 1015.1 |
| 20260507170253 | 18 | 199 | 6.4 | 12.9 | 0.00 | 0.00 | 0.00 | 72 | 1015.5 |
| 20260507165746 | 18 | 202 | 9.7 | 12.9 | 0.00 | 0.00 | 0.00 | 73 | 1015.1 |
| 20260507165239 | 18 | 281 | 6.4 | 11.3 | 0.00 | 0.00 | 0.00 | 73 | 1015.5 |
| 20260507163717 | 18 | 293 | 3.2 | 16.1 | 0.00 | 0.00 | 0.00 | 75 | 1015.5 |
| 20260507162702 | 17 | 211 | 8.0 | 11.3 | 0.00 | 0.00 | 0.00 | 77 | 1015.5 |
| 20260507162155 | 17 | 258 | 3.2 | 9.7 | 0.00 | 0.00 | 0.00 | 77 | 1015.5 |
| 20260507161648 | 17 | 272 | 1.6 | 11.3 | 0.00 | 0.00 | 0.00 | 78 | 1015.5 |
| 20260507161142 | 17 | 226 | 4.8 | 11.3 | 0.00 | 0.00 | 0.00 | 78 | 1015.5 |
| 20260507160634 | 17 | 182 | 3.2 | 9.7 | 0.00 | 0.00 | 0.00 | 77 | 1015.5 |
| 20260507160125 | 17 | 267 | 6.4 | 9.7 | 0.00 | 0.00 | 0.00 | 77 | 1015.5 |
| 20260507155111 | 17 | 245 | 4.8 | 11.3 | 0.00 | 0.00 | 0.00 | 78 | 1015.8 |
| 20260507154604 | 17 | 240 | 6.4 | 9.7 | 0.00 | 0.00 | 0.00 | 79 | 1015.5 |
| 20260507154057 | 17 | 235 | 3.2 | 9.7 | 0.00 | 0.00 | 0.00 | 79 | 1015.5 |
| 20260507153550 | 17 | 231 | 1.6 | 9.7 | 0.00 | 0.00 | 0.00 | 79 | 1015.5 |
| 20260507153042 | 17 | 337 | 3.2 | 9.7 | 0.00 | 0.00 | 0.00 | 79 | 1015.5 |
| 20260507152027 | 16 | 196 | 3.2 | 6.4 | 0.00 | 0.00 | 0.00 | 79 | 1015.5 |
| 20260507151521 | 16 | 148 | 4.8 | 6.4 | 0.00 | 0.00 | 0.00 | 79 | 1015.5 |
| 20260507151014 | 16 | 147 | 1.6 | 4.8 | 0.00 | 0.00 | 0.00 | 80 | 1015.5 |
| 20260507150507 | 16 | 219 | 1.6 | 6.4 | 0.00 | 0.00 | 0.00 | 80 | 1015.5 |
| 20260507145959 | 16 | 244 | 0.0 | 6.4 | 0.00 | 0.00 | 0.00 | 80 | 1015.5 |
| 20260507145452 | 16 | 175 | 3.2 | 4.8 | 0.00 | 0.00 | 0.00 | 79 | 1015.5 |
| 20260507144944 | 16 | 193 | 3.2 | 4.8 | 0.00 | 0.00 | 0.00 | 79 | 1015.5 |
| 20260507144437 | 16 | 239 | 1.6 | 3.2 | 0.00 | 0.00 | 0.00 | 79 | 1015.5 |
| 20260507143930 | 16 | 310 | 0.0 | 1.6 | 0.00 | 0.00 | 0.00 | 81 | 1015.5 |
| 20260507143422 | 16 | 311 | 0.0 | 1.6 | 0.00 | 0.00 | 0.00 | 80 | 1015.5 |
| 20260507142915 | 16 | 315 | 0.0 | 1.6 | 0.00 | 0.00 | 0.00 | 81 | 1015.5 |
| 20260507142408 | 16 | 338 | 1.6 | 1.6 | 0.00 | 0.00 | 0.00 | 81 | 1015.5 |
| 20260507141900 | 15 | 338 | 0.0 | 1.6 | 0.00 | 0.00 | 0.00 | 81 | 1015.1 |
| 20260507141353 | 15 | 338 | 0.0 | 1.6 | 0.00 | 0.00 | 0.00 | 82 | 1015.1 |
| 20260507140339 | 14 | 338 | 0.0 | 1.6 | 0.00 | 0.00 | 0.00 | 83 | 1015.1 |
| 20260507135831 | 14 | 338 | 0.0 | 3.2 | 0.00 | 0.00 | 0.00 | 84 | 1015.1 |
| 20260507134817 | 13 | 332 | 1.6 | 3.2 | 0.00 | 0.00 | 0.00 | 84 | 1015.1 |
| 20260507134310 | 13 | 333 | 1.6 | 1.6 | 0.00 | 0.00 | 0.00 | 85 | 1015.1 |
| 20260507133803 | 13 | 329 | 1.6 | 3.2 | 0.00 | 0.00 | 0.00 | 85 | 1015.1 |
| 20260507132747 | 12 | 330 | 0.0 | 3.2 | 0.00 | 0.00 | 0.00 | 86 | 1015.1 |
| 20260507132240 | 12 | 339 | 1.6 | 3.2 | 0.00 | 0.00 | 0.00 | 87 | 1015.1 |
| 20260507130718 | 12 | 328 | 3.2 | 3.2 | 0.00 | 0.00 | 0.00 | 87 | 1014.8 |
| 20260507125157 | 12 | 328 | 1.6 | 3.2 | 0.00 | 0.00 | 0.00 | 87 | 1014.8 |
| 20260507124650 | 12 | 328 | 3.2 | 3.2 | 0.00 | 0.00 | 0.00 | 87 | 1014.8 |
| 20260507124142 | 12 | 325 | 1.6 | 3.2 | 0.00 | 0.00 | 0.00 | 87 | 1014.8 |
| 20260507123635 | 12 | 323 | 1.6 | 3.2 | 0.00 | 0.00 | 0.00 | 87 | 1014.8 |
| 20260507123128 | 12 | 319 | 0.0 | 3.2 | 0.00 | 0.00 | 0.00 | 87 | 1014.5 |
| 20260507122113 | 12 | 323 | 0.0 | 3.2 | 0.00 | 0.00 | 0.00 | 87 | 1014.8 |
| 20260507121605 | 12 | 331 | 1.6 | 1.6 | 0.00 | 0.00 | 0.00 | 87 | 1014.8 |
| 20260507121058 | 12 | 331 | 0.0 | 1.6 | 0.00 | 0.00 | 0.00 | 87 | 1014.8 |
| 20260507120551 | 12 | 331 | 0.0 | 1.6 | 0.00 | 0.00 | 0.00 | 87 | 1014.8 |
| 20260507120044 | 12 | 331 | 0.0 | 0.0 | 0.00 | 0.00 | 0.00 | 86 | 1014.5 |
| 20260507115537 | 12 | 331 | 0.0 | 1.6 | 0.00 | 0.00 | 0.00 | 86 | 1014.8 |
| 20260507115029 | 12 | 331 | 0.0 | 1.6 | 0.00 | 0.00 | 0.00 | 86 | 1014.8 |
| 20260507114522 | 12 | 337 | 1.6 | 1.6 | 0.00 | 0.00 | 0.00 | 86 | 1014.8 |
| 20260507114015 | 12 | 337 | 0.0 | 1.6 | 0.00 | 0.00 | 0.00 | 86 | 1014.8 |
| 20260507113508 | 12 | 337 | 0.0 | 1.6 | 0.00 | 0.00 | 0.00 | 85 | 1014.8 |
| 20260507113001 | 12 | 337 | 0.0 | 1.6 | 0.00 | 0.00 | 0.00 | 85 | 1014.8 |
| 20260507112453 | 12 | 337 | 0.0 | 3.2 | 0.00 | 0.00 | 0.00 | 86 | 1014.8 |
| 20260507111946 | 12 | 332 | 1.6 | 3.2 | 0.00 | 0.00 | 0.00 | 86 | 1014.8 |
| 20260507110931 | 12 | 325 | 1.6 | 4.8 | 0.00 | 0.00 | 0.00 | 85 | 1015.1 |
| 20260507105916 | 12 | 329 | 1.6 | 3.2 | 0.00 | 0.00 | 0.00 | 85 | 1015.1 |
| 20260507105409 | 13 | 329 | 0.0 | 1.6 | 0.00 | 0.00 | 0.00 | 85 | 1014.8 |
| 20260507104902 | 13 | 329 | 0.0 | 1.6 | 0.00 | 0.00 | 0.00 | 86 | 1015.1 |
| 20260507104355 | 13 | 329 | 1.6 | 1.6 | 0.00 | 0.00 | 0.00 | 86 | 1015.1 |
| 20260507103848 | 13 | 329 | 0.0 | 1.6 | 0.00 | 0.00 | 0.00 | 86 | 1015.1 |
| 20260507103341 | 13 | 335 | 0.0 | 1.6 | 0.00 | 0.00 | 0.00 | 85 | 1015.1 |
| 20260507102833 | 13 | 336 | 0.0 | 1.6 | 0.00 | 0.00 | 0.00 | 86 | 1015.1 |
| 20260507101819 | 13 | 335 | 0.0 | 3.2 | 0.00 | 0.00 | 0.00 | 86 | 1015.1 |
| 20260507101311 | 13 | 4 | 0.0 | 3.2 | 0.00 | 0.00 | 0.00 | 87 | 1015.1 |
| 20260507100804 | 13 | 350 | 0.0 | 3.2 | 0.00 | 0.00 | 0.00 | 87 | 1015.1 |
| 20260507100257 | 13 | 335 | 0.0 | 1.6 | 0.00 | 0.00 | 0.00 | 88 | 1015.1 |
| 20260507095750 | 13 | 335 | 0.0 | 3.2 | 0.00 | 0.00 | 0.00 | 88 | 1015.1 |
| 20260507094735 | 13 | 327 | 0.0 | 1.6 | 0.00 | 0.00 | 0.00 | 88 | 1015.1 |
| 20260507094227 | 13 | 327 | 1.6 | 1.6 | 0.00 | 0.00 | 0.00 | 88 | 1015.5 |
| 20260507093720 | 13 | 327 | 0.0 | 1.6 | 0.00 | 0.00 | 0.00 | 88 | 1015.5 |
| 20260507093213 | 14 | 328 | 0.0 | 3.2 | 0.00 | 0.00 | 0.00 | 89 | 1015.5 |
| 20260507092159 | 14 | 353 | 0.0 | 1.6 | 0.00 | 0.00 | 0.00 | 89 | 1015.5 |
| 20260507091652 | 14 | 347 | 0.0 | 3.2 | 0.00 | 0.00 | 0.00 | 88 | 1015.5 |
| 20260507091145 | 14 | 349 | 1.6 | 3.2 | 0.00 | 0.00 | 0.00 | 88 | 1015.5 |
| 20260507090637 | 14 | 32 | 1.6 | 3.2 | 0.00 | 0.00 | 0.00 | 88 | 1015.5 |
| 20260507090130 | 14 | 0 | 1.6 | 3.2 | 0.00 | 0.00 | 0.00 | 88 | 1015.5 |
| 20260507085623 | 14 | 7 | 0.0 | 3.2 | 0.00 | 0.00 | 0.00 | 88 | 1015.8 |
| 20260507085116 | 14 | 0 | 0.0 | 3.2 | 0.00 | 0.00 | 0.00 | 88 | 1015.8 |
| 20260507084608 | 14 | 2 | 1.6 | 6.4 | 0.00 | 0.00 | 0.00 | 88 | 1015.8 |
| 20260507084100 | 14 | 141 | 3.2 | 6.4 | 0.00 | 0.00 | 0.00 | 88 | 1015.8 |
| 20260507083047 | 14 | 18 | 1.6 | 4.8 | 0.00 | 0.00 | 0.00 | 88 | 1015.8 |
| 20260507082539 | 14 | 8 | 1.6 | 4.8 | 0.00 | 0.00 | 0.00 | 88 | 1015.8 |
| 20260507081524 | 14 | 86 | 4.8 | 4.8 | 0.00 | 0.00 | 0.00 | 88 | 1016.2 |
| 20260507081017 | 14 | 45 | 1.6 | 4.8 | 0.00 | 0.00 | 0.00 | 88 | 1016.2 |
| 20260507080510 | 14 | 351 | 0.0 | 4.8 | 0.00 | 0.00 | 0.00 | 88 | 1015.8 |
| 20260507080004 | 14 | 52 | 1.6 | 4.8 | 0.00 | 0.00 | 0.00 | 89 | 1015.8 |
| 20260507075456 | 14 | 30 | 3.2 | 4.8 | 0.00 | 0.00 | 0.00 | 88 | 1015.8 |
| 20260507074949 | 14 | 40 | 3.2 | 4.8 | 0.00 | 0.00 | 0.00 | 89 | 1016.2 |
| 20260507074441 | 14 | 9 | 1.6 | 4.8 | 0.00 | 0.00 | 0.00 | 88 | 1016.2 |
| 20260507073934 | 14 | 356 | 0.0 | 4.8 | 0.00 | 0.00 | 0.00 | 88 | 1016.2 |
| 20260507073426 | 14 | 14 | 3.2 | 6.4 | 0.00 | 0.00 | 0.00 | 89 | 1016.2 |
| 20260507072919 | 14 | 13 | 4.8 | 6.4 | 0.00 | 0.00 | 0.00 | 89 | 1016.2 |
| 20260507072412 | 14 | 351 | 1.6 | 4.8 | 0.00 | 0.00 | 0.00 | 89 | 1016.2 |
| 20260507071904 | 15 | 356 | 1.6 | 4.8 | 0.00 | 0.00 | 0.00 | 89 | 1016.2 |
| 20260507071357 | 15 | 8 | 3.2 | 3.2 | 0.00 | 0.00 | 0.00 | 89 | 1016.2 |
| 20260507070850 | 14 | 349 | 0.0 | 3.2 | 0.00 | 0.00 | 0.00 | 89 | 1016.2 |
| 20260507065836 | 14 | 357 | 0.0 | 4.8 | 0.00 | 0.00 | 0.00 | 89 | 1016.2 |
| 20260507065329 | 14 | 357 | 0.0 | 4.8 | 0.00 | 0.00 | 0.00 | 89 | 1016.2 |
| 20260507064821 | 14 | 71 | 1.6 | 4.8 | 0.00 | 0.00 | 0.00 | 89 | 1016.2 |
| 20260507064314 | 14 | 79 | 3.2 | 4.8 | 0.00 | 0.00 | 0.00 | 89 | 1016.5 |
| 20260507063806 | 14 | 60 | 1.6 | 4.8 | 0.00 | 0.00 | 0.00 | 89 | 1016.5 |
| 20260507063259 | 14 | 117 | 3.2 | 4.8 | 0.00 | 0.00 | 0.00 | 89 | 1016.2 |
| 20260507062752 | 15 | 129 | 1.6 | 4.8 | 0.00 | 0.00 | 0.00 | 89 | 1016.5 |
| 20260507062244 | 15 | 17 | 1.6 | 6.4 | 0.00 | 0.00 | 0.00 | 89 | 1016.2 |
| 20260507061230 | 15 | 130 | 3.2 | 4.8 | 0.00 | 0.00 | 0.00 | 89 | 1016.2 |
| 20260507060216 | 15 | 75 | 3.2 | 6.4 | 0.00 | 0.00 | 0.00 | 89 | 1016.2 |
| 20260507055708 | 15 | 85 | 3.2 | 6.4 | 0.00 | 0.00 | 0.00 | 89 | 1016.5 |
| 20260507055201 | 15 | 29 | 3.2 | 6.4 | 0.00 | 0.00 | 0.00 | 89 | 1016.5 |
| 20260507054653 | 15 | 127 | 3.2 | 4.8 | 0.00 | 0.00 | 0.00 | 89 | 1016.2 |
| 20260507054146 | 15 | 97 | 3.2 | 4.8 | 0.00 | 0.00 | 0.00 | 89 | 1016.2 |
| 20260507053132 | 15 | 145 | 1.6 | 6.4 | 0.00 | 0.00 | 0.00 | 88 | 1016.2 |
| 20260507052625 | 15 | 155 | 1.6 | 6.4 | 0.00 | 0.00 | 0.00 | 88 | 1016.2 |
| 20260507052118 | 15 | 87 | 3.2 | 6.4 | 0.00 | 0.00 | 0.00 | 88 | 1016.2 |
| 20260507051103 | 15 | 156 | 3.2 | 6.4 | 0.00 | 0.00 | 0.00 | 88 | 1016.2 |
| 20260507050556 | 15 | 45 | 1.6 | 4.8 | 0.00 | 0.00 | 0.00 | 87 | 1016.2 |
| 20260507050049 | 15 | 135 | 3.2 | 4.8 | 0.00 | 0.00 | 0.00 | 87 | 1016.2 |
| 20260507045541 | 15 | 106 | 3.2 | 4.8 | 0.00 | 0.00 | 0.00 | 88 | 1016.2 |
| 20260507045034 | 15 | 100 | 4.8 | 4.8 | 0.00 | 0.00 | 0.00 | 88 | 1016.2 |
| 20260507044527 | 15 | 346 | 0.0 | 1.6 | 0.00 | 0.00 | 0.00 | 88 | 1015.8 |
| 20260507044020 | 15 | 349 | 0.0 | 1.6 | 0.00 | 0.00 | 0.00 | 88 | 1016.2 |
| 20260507043511 | 15 | 25 | 1.6 | 1.6 | 0.00 | 0.00 | 0.00 | 88 | 1016.2 |
| 20260507043004 | 15 | 285 | 0.0 | 3.2 | 0.00 | 0.00 | 0.00 | 88 | 1016.2 |
| 20260507042457 | 15 | 198 | 1.6 | 3.2 | 0.00 | 0.00 | 0.00 | 88 | 1016.2 |
| 20260507041443 | 15 | 246 | 0.0 | 4.8 | 0.00 | 0.00 | 0.00 | 88 | 1016.2 |
| 20260507040935 | 15 | 192 | 1.6 | 4.8 | 0.00 | 0.00 | 0.00 | 88 | 1015.8 |
| 20260507040428 | 15 | 197 | 3.2 | 3.2 | 0.00 | 0.00 | 0.00 | 88 | 1016.2 |
| 20260507035921 | 15 | 234 | 1.6 | 3.2 | 0.00 | 0.00 | 0.00 | 88 | 1015.8 |
| 20260507034359 | 15 | 202 | 3.2 | 3.2 | 0.00 | 0.00 | 0.00 | 88 | 1015.8 |
| 20260507033852 | 15 | 250 | 0.0 | 3.2 | 0.00 | 0.00 | 0.00 | 88 | 1015.8 |
| 20260507032838 | 15 | 251 | 3.2 | 3.2 | 0.00 | 0.00 | 0.00 | 87 | 1015.5 |
| 20260507032330 | 15 | 217 | 1.6 | 3.2 | 0.00 | 0.00 | 0.00 | 87 | 1015.5 |
| 20260507031823 | 15 | 247 | 1.6 | 4.8 | 0.00 | 0.00 | 0.00 | 87 | 1015.5 |
| 20260507030808 | 15 | 242 | 1.6 | 6.4 | 0.00 | 0.00 | 0.00 | 86 | 1015.1 |
| 20260507030301 | 15 | 288 | 0.0 | 6.4 | 0.00 | 0.00 | 0.00 | 86 | 1015.1 |
| 20260507025755 | 15 | 296 | 0.0 | 6.4 | 0.00 | 0.00 | 0.00 | 85 | 1015.1 |
| 20260507025246 | 15 | 238 | 3.2 | 11.3 | 0.00 | 0.00 | 0.00 | 85 | 1015.1 |
| 20260507024739 | 15 | 263 | 3.2 | 11.3 | 0.00 | 0.00 | 0.00 | 84 | 1015.1 |
| 20260507024232 | 15 | 299 | 0.0 | 9.7 | 0.00 | 0.00 | 0.00 | 83 | 1015.1 |
| 20260507023725 | 15 | 265 | 6.4 | 9.7 | 0.00 | 0.00 | 0.00 | 82 | 1015.1 |
| 20260507023217 | 15 | 228 | 3.2 | 9.7 | 0.00 | 0.00 | 0.00 | 82 | 1015.1 |
| 20260507022710 | 16 | 271 | 3.2 | 11.3 | 0.00 | 0.00 | 0.00 | 81 | 1015.1 |
| 20260507022203 | 16 | 252 | 3.2 | 14.5 | 0.00 | 0.00 | 0.00 | 80 | 1015.1 |
| 20260507021148 | 16 | 243 | 9.7 | 14.5 | 0.00 | 0.00 | 0.00 | 79 | 1015.1 |
| 20260507020134 | 16 | 193 | 6.4 | 17.7 | 0.00 | 0.00 | 0.00 | 77 | 1015.1 |
| 20260507015627 | 16 | 250 | 11.3 | 17.7 | 0.00 | 0.00 | 0.00 | 75 | 1015.1 |
| 20260507015120 | 16 | 251 | 9.7 | 20.9 | 0.00 | 0.00 | 0.00 | 75 | 1015.1 |
| 20260507014104 | 17 | 240 | 9.7 | 16.1 | 0.00 | 0.00 | 0.00 | 72 | 1015.1 |
| 20260507013557 | 17 | 260 | 9.7 | 14.5 | 0.00 | 0.00 | 0.00 | 72 | 1015.1 |
| 20260507013050 | 17 | 254 | 9.7 | 14.5 | 0.00 | 0.00 | 0.00 | 73 | 1015.1 |
| 20260507012543 | 17 | 222 | 8.0 | 22.5 | 0.00 | 0.00 | 0.00 | 73 | 1014.8 |
| 20260507012036 | 16 | 235 | 9.7 | 25.7 | 0.00 | 0.00 | 0.00 | 72 | 1015.1 |
| 20260507011528 | 17 | 237 | 17.7 | 22.5 | 0.00 | 0.00 | 0.00 | 72 | 1015.1 |
| 20260507011021 | 17 | 252 | 6.4 | 22.5 | 0.00 | 0.00 | 0.00 | 73 | 1014.8 |
| 20260507010514 | 17 | 250 | 12.9 | 20.9 | 0.00 | 0.00 | 0.00 | 73 | 1014.8 |
| 20260507005459 | 17 | 259 | 9.7 | 24.1 | 0.00 | 0.00 | 0.00 | 73 | 1014.8 |
| 20260507004951 | 17 | 242 | 14.5 | 24.1 | 0.00 | 0.00 | 0.00 | 73 | 1014.8 |
| 20260507004444 | 17 | 264 | 12.9 | 29.0 | 0.00 | 0.00 | 0.00 | 73 | 1014.8 |
| 20260507003937 | 17 | 271 | 16.1 | 29.0 | 0.00 | 0.00 | 0.00 | 73 | 1014.8 |
| 20260507003429 | 17 | 228 | 19.3 | 24.1 | 0.00 | 0.00 | 0.00 | 71 | 1015.1 |
| 20260507002922 | 17 | 202 | 17.7 | 22.5 | 0.00 | 0.00 | 0.00 | 70 | 1014.8 |
| 20260507002415 | 18 | 292 | 11.3 | 20.9 | 0.00 | 0.00 | 0.00 | 71 | 1014.8 |
| 20260507001908 | 18 | 265 | 6.4 | 20.9 | 0.00 | 0.00 | 0.00 | 71 | 1014.8 |
| 20260507001400 | 17 | 215 | 9.7 | 20.9 | 0.00 | 0.00 | 0.00 | 73 | 1014.8 |
| 20260507000854 | 17 | 261 | 8.0 | 24.1 | 0.00 | 0.00 | 0.00 | 73 | 1014.8 |
| 20260507000347 | 17 | 232 | 22.5 | 24.1 | 0.00 | 0.00 | 0.00 | 72 | 1014.8 |
| 20260506235839 | 17 | 216 | 14.5 | 27.4 | 0.00 | 0.00 | 0.00 | 73 | 1014.8 |
| 20260506235332 | 18 | 252 | 16.1 | 27.4 | 0.00 | 0.00 | 0.00 | 72 | 1014.8 |
| 20260506234825 | 18 | 188 | 8.0 | 24.1 | 0.00 | 0.00 | 0.00 | 71 | 1014.8 |
| 20260506234317 | 18 | 254 | 11.3 | 25.7 | 0.00 | 0.00 | 0.00 | 71 | 1014.8 |
| 20260506233810 | 18 | 243 | 14.5 | 25.7 | 0.00 | 0.00 | 0.00 | 69 | 1014.8 |
| 20260506233303 | 18 | 213 | 6.4 | 22.5 | 0.00 | 0.00 | 0.00 | 68 | 1014.8 |
| 20260506232247 | 18 | 217 | 9.7 | 27.4 | 0.00 | 0.00 | 0.00 | 63 | 1014.8 |
| 20260506231234 | 18 | 280 | 14.5 | 25.7 | 0.00 | 0.00 | 0.00 | 63 | 1014.8 |